GW4712 Weather Reports


time (UTC)temp
C
wind
direction
speed
KPH
gust
KPH
rain 1hr
cm
rain 24hr
cm
rain mn
cm
humidity
%
barometer
mb
20260510185838 18 355 1.6 3.2 0.00 0.00 0.00 79 1016.2
20260510185336 18 237 1.6 3.2 0.00 0.00 0.00 80 1016.2
20260510184833 19 45 3.2 4.8 0.00 0.00 0.00 79 1016.1
20260510184330 19 322 3.2 6.4 0.00 0.00 0.00 80 1016.2
20260510183824 18 325 1.6 11.3 0.00 0.00 0.00 81 1016.1
20260510183320 19 348 0.0 3.2 0.00 0.00 0.00 78 1016.0
20260510182811 19 300 3.2 6.4 0.00 0.00 0.00 80 1016.0
20260510182307 19 280 4.8 6.4 0.00 0.00 0.00 80 1016.0
20260510181803 18 11 0.0 6.4 0.00 0.00 0.00 82 1016.0
20260510181301 18 4 3.2 4.8 0.00 0.00 0.00 79 1016.0
20260510180757 18 40 8.0 11.3 0.00 0.00 0.00 81 1015.8
20260510180254 18 28 3.2 3.2 0.00 0.00 0.00 82 1015.8
20260510175751 18 10 4.8 9.7 0.00 0.00 0.00 82 1015.6
20260510175246 18 27 1.6 4.8 0.00 0.00 0.00 84 1015.9
20260510174743 17 344 0.0 1.6 0.00 0.00 0.00 86 1015.9
20260510174241 17 8 1.6 3.2 0.00 0.00 0.00 84 1015.7
20260510173737 17 34 3.2 9.7 0.00 0.00 0.00 85 1015.9
20260510173232 17 9 3.2 4.8 0.00 0.00 0.00 83 1015.9
20260510172728 18 321 1.6 6.4 0.00 0.00 0.00 84 1016.0
20260510172225 18 344 1.6 3.2 0.00 0.00 0.00 83 1015.9
20260510171721 18 23 4.8 4.8 0.00 0.00 0.00 81 1015.7
20260510171219 18 256 3.2 4.8 0.00 0.00 0.00 82 1015.8
20260510170716 17 308 3.2 6.4 0.00 0.00 0.00 82 1015.7
20260510170212 18 315 4.8 6.4 0.00 0.00 0.00 82 1015.7
20260510165708 17 316 4.8 6.4 0.00 0.00 0.00 81 1015.8
20260510165204 17 14 0.0 3.2 0.00 0.00 0.00 84 1015.7
20260510164701 17 316 3.2 6.4 0.00 0.00 0.00 82 1015.6
20260510164158 18 39 4.8 6.4 0.00 0.00 0.00 80 1015.7
20260510163659 18 312 3.2 4.8 0.00 0.00 0.00 83 1015.6
20260510163155 17 314 1.6 4.8 0.00 0.00 0.00 84 1015.3
20260510162654 17 32 1.6 3.2 0.00 0.00 0.00 84 1015.5
20260510162151 18 359 1.6 3.2 0.00 0.00 0.00 82 1015.4
20260510161647 17 318 3.2 4.8 0.00 0.00 0.00 84 1015.5
20260510161144 17 335 0.0 1.6 0.00 0.00 0.00 86 1015.5
20260510160641 17 358 0.0 0.0 0.00 0.00 0.00 85 1015.6
20260510160136 17 5 0.0 0.0 0.00 0.00 0.00 86 1015.5
20260510155632 17 5 0.0 0.0 0.00 0.00 0.00 84 1015.4
20260510155128 17 54 3.2 4.8 0.00 0.00 0.00 82 1015.6
20260510154624 18 72 1.6 1.6 0.00 0.00 0.00 76 1015.6
20260510154119 18 306 1.6 1.6 0.00 0.00 0.00 75 1015.6
20260510153615 18 311 3.2 4.8 0.00 0.00 0.00 73 1015.8
20260510153111 19 319 4.8 4.8 0.00 0.00 0.00 74 1015.6
20260510152608 18 312 6.4 6.4 0.00 0.00 0.00 73 1015.6
20260510152104 19 307 6.4 12.9 0.00 0.00 0.00 72 1015.7
20260510151601 19 315 3.2 9.7 0.00 0.00 0.00 71 1015.8
20260510151100 20 312 9.7 14.5 0.00 0.00 0.00 68 1015.3
20260510150600 20 300 1.6 1.6 0.00 0.00 0.00 65 1015.1
20260510150055 20 315 6.4 11.3 0.00 0.00 0.00 65 1014.8
20260510145552 21 312 4.8 6.4 0.00 0.00 0.00 67 1014.8
20260510145049 20 173 4.8 4.8 0.00 0.00 0.00 66 1014.7
20260510144546 20 181 0.0 3.2 0.00 0.00 0.00 67 1014.9
20260510144042 20 300 1.6 6.4 0.00 0.00 0.00 66 1014.9
20260510143537 20 299 3.2 6.4 0.00 0.00 0.00 70 1014.9
20260510143034 20 308 4.8 6.4 0.00 0.00 0.00 69 1014.8
20260510142530 20 300 1.6 4.8 0.00 0.00 0.00 67 1015.1
20260510142027 19 311 4.8 6.4 0.00 0.00 0.00 69 1015.1
20260510141524 19 274 1.6 3.2 0.00 0.00 0.00 72 1015.2
20260510141021 18 287 1.6 4.8 0.00 0.00 0.00 71 1015.1
20260510140517 18 320 6.4 9.7 0.00 0.00 0.00 73 1015.1
20260510140017 18 270 1.6 3.2 0.00 0.00 0.00 72 1014.8
20260510135513 18 230 3.2 9.7 0.00 0.00 0.00 69 1014.6
20260510135010 18 308 8.0 17.7 0.00 0.00 0.00 71 1014.7
20260510134507 18 269 3.2 9.7 0.00 0.00 0.00 71 1014.6
20260510134003 18 244 1.6 3.2 0.00 0.00 0.00 71 1014.6
20260510133459 18 221 1.6 1.6 0.00 0.00 0.00 74 1014.6
20260510132955 18 221 1.6 1.6 0.00 0.00 0.00 74 1014.9
20260510132453 18 183 3.2 3.2 0.00 0.00 0.00 73 1014.7
20260510131949 18 302 3.2 3.2 0.00 0.00 0.00 73 1014.6
20260510131447 18 231 1.6 3.2 0.00 0.00 0.00 74 1014.7
20260510130944 17 91 1.6 3.2 0.00 0.00 0.00 74 1014.7
20260510130440 17 245 4.8 4.8 0.00 0.00 0.00 75 1014.7
20260510125938 17 177 3.2 4.8 0.00 0.00 0.00 76 1014.5
20260510125434 17 278 4.8 6.4 0.00 0.00 0.00 76 1014.9
20260510124930 17 175 1.6 3.2 0.00 0.00 0.00 78 1014.8
20260510124427 16 312 1.6 1.6 0.00 0.00 0.00 78 1015.1
20260510123924 16 314 3.2 4.8 0.00 0.00 0.00 80 1015.1
20260510123419 16 309 3.2 4.8 0.00 0.00 0.00 79 1015.1
20260510122916 16 243 1.6 3.2 0.00 0.00 0.00 79 1014.8
20260510122410 16 110 0.0 0.0 0.00 0.00 0.00 86 1014.7
20260510121907 15 272 8.0 12.9 0.00 0.00 0.00 83 1014.5
20260510121405 14 79 0.0 0.0 0.00 0.00 0.00 93 1014.6
20260510120902 12 116 0.0 1.6 0.00 0.00 0.00 96 1014.5
20260510120359 12 326 0.0 0.0 0.00 0.00 0.00 97 1014.5
20260510115854 12 326 0.0 0.0 0.00 0.00 0.00 97 1014.5
20260510115352 11 326 0.0 0.0 0.00 0.00 0.00 97 1014.5
20260510114847 11 326 0.0 0.0 0.00 0.00 0.00 97 1014.1
20260510114345 11 327 0.0 0.0 0.00 0.00 0.00 98 1014.1
20260510113845 11 326 0.0 0.0 0.00 0.00 0.00 98 1014.1
20260510113341 10 326 0.0 0.0 0.00 0.00 0.00 99 1013.9
20260510112838 9 296 0.0 0.0 0.00 0.00 0.00 99 1013.7
20260510112336 9 296 0.0 0.0 0.00 0.00 0.00 99 1013.9
20260510111831 8 297 0.0 0.0 0.00 0.00 0.00 99 1013.7
20260510111328 8 297 0.0 0.0 0.00 0.00 0.00 99 1013.7
20260510110822 8 285 1.6 1.6 0.00 0.00 0.00 99 1013.5
20260510110320 8 328 0.0 0.0 0.00 0.00 0.00 99 1013.4
20260510105816 -17 0.0 0.0 0.00 0.00 0.00 1013.2
20260510105315 -17 0.0 0.0 0.00 0.00 0.00 1013.3
20260510104812 8 328 0.0 1.6 0.00 0.00 0.00 99 1013.3
20260510104310 8 328 0.0 1.6 0.00 0.00 0.00 99 1013.0
20260510103806 -17 0.0 0.0 0.00 0.00 0.00 1013.2
20260510103303 -17 0.0 0.0 0.00 0.00 0.00 1013.1
20260510102803 -17 0.0 0.0 0.00 0.00 0.00 1013.2
20260510102259 -17 0.0 0.0 0.00 0.00 0.00 1013.2
20260510101756 -17 0.0 0.0 0.00 0.00 0.00 1013.3
20260510101255 -17 0.0 0.0 0.00 0.00 0.00 1012.9
20260510100750 -17 0.0 0.0 0.00 0.00 0.00 1012.7
20260510100249 -17 0.0 0.0 0.00 0.00 0.00 1012.5
20260510095749 -17 0.0 0.0 0.00 0.00 0.00 1012.6
20260510095245 -17 0.0 0.0 0.00 0.00 0.00 1012.7
20260510094744 -17 0.0 0.0 0.00 0.00 0.00 1012.5
20260510094240 -17 0.0 0.0 0.00 0.00 0.00 1012.7
20260510093736 -17 0.0 0.0 0.00 0.00 0.00 1012.5
20260510093233 -17 0.0 0.0 0.00 0.00 0.00 1012.4
20260510092729 -17 0.0 0.0 0.00 0.00 0.00 1012.4
20260510092225 -17 0.0 0.0 0.00 0.00 0.00 1012.7
20260510091721 -17 0.0 0.0 0.00 0.00 0.00 1012.2
20260510091218 -17 0.0 0.0 0.00 0.00 0.00 1012.2
20260510090714 -17 0.0 0.0 0.00 0.00 0.00 1012.3
20260510090211 7 337 0.0 0.0 0.00 0.00 0.00 99 1012.4
20260510085706 7 337 0.0 0.0 0.00 0.00 0.00 99 1012.2
20260510085202 -17 0.0 0.0 0.00 0.00 0.00 1012.1
20260510084658 8 338 0.0 0.0 0.00 0.00 0.00 99 1012.2
20260510084155 8 338 0.0 0.0 0.00 0.00 0.00 99 1012.0
20260510083652 8 337 0.0 0.0 0.00 0.00 0.00 99 1012.0
20260510083148 8 338 0.0 0.0 0.00 0.00 0.00 99 1012.1
20260510082644 8 338 0.0 0.0 0.00 0.00 0.00 99 1012.1
20260510082140 8 338 0.0 0.0 0.00 0.00 0.00 99 1012.0
20260510081635 8 337 0.0 1.6 0.00 0.00 0.00 99 1012.0
20260510081131 8 21 0.0 1.6 0.00 0.00 0.00 99 1012.2
20260510080630 8 307 0.0 0.0 0.00 0.00 0.00 99 1011.9
20260510080127 8 307 0.0 3.2 0.00 0.00 0.00 99 1011.8
20260510075625 8 284 0.0 0.0 0.00 0.00 0.00 99 1011.7
20260510075122 8 275 0.0 0.0 0.00 0.00 0.00 99 1011.6
20260510074619 8 275 0.0 0.0 0.00 0.00 0.00 99 1011.8
20260510074115 8 275 0.0 0.0 0.00 0.00 0.00 99 1011.5
20260510073611 8 285 0.0 0.0 0.00 0.00 0.00 99 1011.7
20260510073108 8 285 0.0 0.0 0.00 0.00 0.00 99 1011.8
20260510072605 8 285 0.0 0.0 0.00 0.00 0.00 99 1011.8
20260510072101 8 285 0.0 0.0 0.00 0.00 0.00 99 1011.9
20260510071557 8 285 0.0 0.0 0.00 0.00 0.00 99 1011.7
20260510071055 8 285 0.0 0.0 0.00 0.00 0.00 99 1011.7
20260510070551 8 285 1.6 1.6 0.00 0.00 0.00 99 1011.8
20260510070049 8 285 0.0 0.0 0.00 0.00 0.00 99 1011.9
20260510065545 9 284 0.0 0.0 0.00 0.00 0.00 99 1011.7
20260510065041 8 285 0.0 0.0 0.00 0.00 0.00 99 1011.8
20260510064537 9 285 0.0 3.2 0.00 0.00 0.00 98 1011.7
20260510064034 9 310 3.2 3.2 0.00 0.00 0.00 98 1011.9
20260510063531 9 309 0.0 0.0 0.00 0.00 0.00 98 1011.7
20260510063028 9 312 0.0 0.0 0.00 0.00 0.00 98 1011.9
20260510062524 9 313 0.0 0.0 0.00 0.00 0.00 98 1011.9
20260510062019 9 315 0.0 1.6 0.00 0.00 0.00 98 1011.8
20260510061516 9 9 0.0 0.0 0.00 0.00 0.00 98 1011.8
20260510061013 9 254 3.2 3.2 0.00 0.00 0.00 98 1011.8
20260510060509 9 82 0.0 0.0 0.00 0.00 0.00 98 1011.9
20260510060006 9 82 0.0 0.0 0.00 0.00 0.00 98 1011.9
20260510055501 10 81 0.0 0.0 0.00 0.00 0.00 98 1012.0
20260510055000 10 82 0.0 0.0 0.00 0.00 0.00 98 1012.0
20260510054455 10 82 0.0 0.0 0.00 0.00 0.00 98 1012.0
20260510053950 10 82 0.0 0.0 0.00 0.00 0.00 98 1012.1
20260510053445 10 81 0.0 0.0 0.00 0.00 0.00 98 1012.1
20260510052942 9 81 0.0 0.0 0.00 0.00 0.00 98 1012.0
20260510052438 10 81 0.0 0.0 0.00 0.00 0.00 98 1012.2
20260510051934 10 82 0.0 0.0 0.00 0.00 0.00 97 1012.3
20260510051431 10 90 0.0 0.0 0.00 0.00 0.00 98 1012.3
20260510050927 10 90 0.0 0.0 0.00 0.00 0.00 98 1012.1
20260510050424 10 90 0.0 0.0 0.00 0.00 0.00 98 1012.1
20260510045921 10 90 0.0 0.0 0.00 0.00 0.00 98 1012.3
20260510045418 10 90 0.0 0.0 0.00 0.00 0.00 98 1012.2
20260510044915 10 90 0.0 0.0 0.00 0.00 0.00 98 1012.1
20260510044412 10 90 0.0 0.0 0.00 0.00 0.00 98 1012.2
20260510043909 10 90 0.0 0.0 0.00 0.00 0.00 98 1012.3
20260510043404 10 90 0.0 0.0 0.00 0.00 0.00 98 1012.3
20260510042903 10 90 0.0 0.0 0.00 0.00 0.00 98 1012.2
20260510042358 9 89 0.0 0.0 0.00 0.00 0.00 98 1012.2
20260510041854 10 90 0.0 0.0 0.00 0.00 0.00 98 1012.0
20260510041352 9 285 0.0 0.0 0.00 0.00 0.00 98 1012.1
20260510040849 9 284 0.0 0.0 0.00 0.00 0.00 98 1012.0
20260510040346 9 285 0.0 0.0 0.00 0.00 0.00 98 1011.9
20260510035841 9 285 0.0 0.0 0.00 0.00 0.00 97 1012.0
20260510035337 9 284 0.0 0.0 0.00 0.00 0.00 97 1012.0
20260510034833 9 285 0.0 0.0 0.00 0.00 0.00 97 1011.8
20260510034331 9 285 0.0 0.0 0.00 0.00 0.00 97 1012.0
20260510033827 9 285 0.0 0.0 0.00 0.00 0.00 97 1012.0
20260510033324 9 285 0.0 0.0 0.00 0.00 0.00 97 1012.0
20260510032821 10 285 0.0 0.0 0.00 0.00 0.00 97 1011.8
20260510032318 10 285 0.0 0.0 0.00 0.00 0.00 97 1011.6
20260510031813 10 285 0.0 0.0 0.00 0.00 0.00 97 1011.6
20260510031309 10 285 0.0 0.0 0.00 0.00 0.00 97 1011.6
20260510030809 10 285 0.0 0.0 0.00 0.00 0.00 97 1011.6
20260510030306 10 285 0.0 0.0 0.00 0.00 0.00 97 1011.4
20260510025803 10 285 0.0 0.0 0.00 0.00 0.00 97 1011.5
20260510025300 10 285 0.0 0.0 0.00 0.00 0.00 96 1011.6
20260510024757 10 285 0.0 0.0 0.00 0.00 0.00 96 1011.5
20260510024254 10 285 0.0 0.0 0.00 0.00 0.00 96 1011.3
20260510023750 10 285 0.0 0.0 0.00 0.00 0.00 96 1011.4
20260510023247 10 285 0.0 0.0 0.00 0.00 0.00 96 1011.6
20260510022743 10 285 0.0 0.0 0.00 0.00 0.00 96 1011.5
20260510022243 11 285 0.0 0.0 0.00 0.00 0.00 95 1011.5
20260510021742 11 284 0.0 0.0 0.00 0.00 0.00 95 1011.2
20260510021241 11 285 0.0 0.0 0.00 0.00 0.00 95 1011.3
20260510020736 11 246 0.0 0.0 0.00 0.00 0.00 95 1011.1
20260510020231 11 246 0.0 0.0 0.00 0.00 0.00 94 1011.1
20260510015728 11 246 0.0 0.0 0.00 0.00 0.00 94 1011.1
20260510015224 11 246 0.0 0.0 0.00 0.00 0.00 94 1010.8
20260510014719 11 245 0.0 0.0 0.00 0.00 0.00 93 1010.5
20260510014217 12 130 0.0 0.0 0.00 0.00 0.00 93 1010.4
20260510013712 12 130 0.0 1.6 0.00 0.00 0.00 92 1010.5
20260510013208 12 130 0.0 3.2 0.00 0.00 0.00 92 1010.5
20260510012707 12 130 0.0 0.0 0.00 0.00 0.00 92 1010.1
20260510012203 12 130 0.0 0.0 0.00 0.00 0.00 92 1010.2
20260510011657 12 130 0.0 0.0 0.00 0.00 0.00 91 1010.4
20260510011148 13 130 0.0 0.0 0.00 0.00 0.00 90 1010.2
20260510010644 13 130 0.0 0.0 0.00 0.00 0.00 90 1010.1
20260510010141 13 130 0.0 0.0 0.00 0.00 0.00 89 1010.0
20260510005637 13 130 0.0 0.0 0.00 0.00 0.00 88 1010.1
20260510005134 13 130 0.0 0.0 0.00 0.00 0.00 87 1010.0
20260510004633 13 131 0.0 0.0 0.00 0.00 0.00 86 1009.9
20260510004125 14 131 0.0 0.0 0.00 0.00 0.00 85 1009.9
20260510003622 14 119 0.0 0.0 0.00 0.00 0.00 85 1009.9
20260510003118 15 118 0.0 0.0 0.00 0.00 0.00 84 1009.8
20260510002618 15 152 0.0 1.6 0.00 0.00 0.00 82 1009.9
20260510002115 15 152 1.6 1.6 0.00 0.00 0.00 81 1009.6
20260510001612 15 167 1.6 3.2 0.00 0.00 0.00 80 1009.5
20260510001111 16 171 0.0 0.0 0.00 0.00 0.00 76 1009.7
20260510000611 16 172 0.0 1.6 0.00 0.00 0.00 74 1009.6
20260510000108 17 172 1.6 1.6 0.00 0.00 0.00 72 1009.4
20260509235604 17 176 3.2 3.2 0.00 0.00 0.00 70 1009.4
20260509235101 19 204 1.6 3.2 0.00 0.00 0.00 66 1009.4
20260509234557 20 284 1.6 4.8 0.00 0.00 0.00 58 1009.2
20260509234055 20 321 1.6 4.8 0.00 0.00 0.00 58 1009.3
20260509233552 20 310 3.2 9.7 0.00 0.00 0.00 57 1009.3
20260509233050 20 306 3.2 3.2 0.00 0.00 0.00 56 1009.2
20260509232546 20 236 6.4 6.4 0.00 0.00 0.00 55 1009.3
20260509232043 21 243 3.2 4.8 0.00 0.00 0.00 55 1009.2
20260509231539 21 293 6.4 11.3 0.00 0.00 0.00 54 1009.2
20260509231037 21 316 4.8 9.7 0.00 0.00 0.00 55 1009.1
20260509230534 21 234 1.6 6.4 0.00 0.00 0.00 55 1009.2
20260509230031 21 288 8.0 12.9 0.00 0.00 0.00 53 1009.0
20260509225526 21 186 1.6 6.4 0.00 0.00 0.00 54 1009.0
20260509225022 21 276 3.2 4.8 0.00 0.00 0.00 52 1009.2
20260509224518 21 293 3.2 6.4 0.00 0.00 0.00 55 1009.3
20260509224014 21 244 6.4 11.3 0.00 0.00 0.00 54 1009.3
20260509223511 21 326 8.0 12.9 0.00 0.00 0.00 52 1009.3
20260509223010 21 255 3.2 4.8 0.00 0.00 0.00 53 1009.4
20260509222505 21 247 6.4 6.4 0.00 0.00 0.00 53 1009.5
20260509222001 21 273 1.6 9.7 0.00 0.00 0.00 51 1009.5
20260509221457 21 311 6.4 11.3 0.00 0.00 0.00 53 1009.6
20260509220953 21 272 1.6 4.8 0.00 0.00 0.00 54 1009.6
20260509220444 21 232 6.4 6.4 0.00 0.00 0.00 55 1009.7
20260509215940 20 323 3.2 17.7 0.00 0.00 0.00 56 1009.5
20260509215435 20 249 4.8 11.3 0.00 0.00 0.00 55 1009.5
20260509214933 21 297 4.8 9.7 0.00 0.00 0.00 55 1009.6
20260509214430 21 319 11.3 16.1 0.00 0.00 0.00 53 1009.8
20260509213927 21 256 6.4 11.3 0.00 0.00 0.00 54 1009.5
20260509213422 21 312 6.4 9.7 0.00 0.00 0.00 55 1009.6
20260509212921 20 238 4.8 4.8 0.00 0.00 0.00 57 1009.6
20260509212418 20 301 8.0 20.9 0.00 0.00 0.00 59 1009.6
20260509211914 20 332 3.2 9.7 0.00 0.00 0.00 58 1009.5
20260509211410 21 294 4.8 12.9 0.00 0.00 0.00 57 1009.6
20260509210906 20 296 6.4 11.3 0.00 0.00 0.00 59 1009.7
20260509210404 21 316 4.8 11.3 0.00 0.00 0.00 59 1009.4
20260509205904 20 313 4.8 4.8 0.00 0.00 0.00 61 1009.6
20260509205403 20 148 1.6 9.7 0.00 0.00 0.00 57 1009.8
20260509204900 20 298 0.0 1.6 0.00 0.00 0.00 58 1009.6
20260509204356 20 260 8.0 11.3 0.00 0.00 0.00 60 1009.6
20260509203853 20 251 4.8 9.7 0.00 0.00 0.00 60 1009.5
20260509203349 20 311 12.9 22.5 0.00 0.00 0.00 59 1009.6
20260509202846 21 323 4.8 9.7 0.00 0.00 0.00 57 1009.6
20260509202342 20 317 6.4 6.4 0.00 0.00 0.00 63 1009.7
20260509201837 20 309 4.8 12.9 0.00 0.00 0.00 59 1009.9
20260509201333 20 314 11.3 17.7 0.00 0.00 0.00 61 1009.9
20260509200830 20 317 3.2 9.7 0.00 0.00 0.00 64 1009.8
20260509200325 20 285 6.4 6.4 0.00 0.00 0.00 62 1009.9
20260509195822 19 312 11.3 14.5 0.00 0.00 0.00 60 1009.8
20260509195322 19 324 9.7 14.5 0.00 0.00 0.00 63 1010.1
20260509194816 19 327 9.7 16.1 0.00 0.00 0.00 63 1010.1
20260509194313 20 322 3.2 9.7 0.00 0.00 0.00 60 1010.2
20260509193810 20 327 8.0 14.5 0.00 0.00 0.00 64 1010.3
20260509193310 19 247 6.4 9.7 0.00 0.00 0.00 59 1010.2
20260509192806 18 262 4.8 6.4 0.00 0.00 0.00 62 1010.1
20260509192305 18 322 3.2 4.8 0.00 0.00 0.00 63 1010.1
20260509191757 18 227 4.8 6.4 0.00 0.00 0.00 61 1010.2
20260509191254 18 249 8.0 11.3 0.00 0.00 0.00 62 1010.2
20260509190749 18 177 11.3 14.5 0.00 0.00 0.00 62 1010.0
20260509190247 18 312 9.7 12.9 0.00 0.00 0.00 62 1010.1